Regional Weather Roundup
Issued by NWS Mt. Holly, NJ

Home | Current Version | Previous Version | Text Only | Print | Product List | Glossary On
Versions: 1 2 3 4 5 6 7 8 9 10 11 12 13 14 15 16 17 18 19 20 21 22 23 24 25 26 27 28 29 30 31 32 33 34 35 36 37 38 39 40 41 42 43 44 45 46 47 48 49 50
000
ASUS41 KPHI 011410
RWRPHI

REGIONAL WEATHER ROUNDUP
NATIONAL WEATHER SERVICE MOUNT HOLLY NJ
1000 AM EDT WED OCT 01 2014

NOTE:  "FAIR" INDICATES FEW OR NO CLOUDS BELOW 12,000 FEET WITH NO
SIGNIFICANT WEATHER AND/OR OBSTRUCTIONS TO VISIBILITY.

 * = STATION DOES NOT REPORT PRECIPITATION (E.G. RAIN, SNOW, ETC.)
        OR FOG.

NJZ015>026-011500-
SOUTHERN NEW JERSEY

CITY           SKY/WX    TMP DP  RH WIND       PRES   REMARKS
POMONA         LGT RAIN  64  62  93 N7        30.02R FOG
RIO GRANDE*    CLOUDY    64  57  77 N12       30.02R
MILLVILLE      CLOUDY    64  59  83 NE8       30.02R
WRIGHTSTOWN    CLOUDY    64  60  86 N10       30.01R
MOUNT HOLLY    CLOUDY    65  58  78 N7        30.04R
TRENTON        CLOUDY    66  56  70 NE10      30.04R

$$
NJZ001>014-011500-
NORTHERN NEW JERSEY

CITY           SKY/WX    TMP DP  RH WIND       PRES   REMARKS
SUSSEX         CLOUDY    63  56  78 NE7       30.07S
ANDOVER*         N/A     62  56  80 VRB6      30.07R
MORRISTOWN     CLOUDY    64  59  82 NE8       30.06R
NEWARK         DRIZZLE   62  58  86 N12       30.05R
TETERBORO      LGT RAIN  62  57  83 N8        30.04R
CALDWELL       CLOUDY    61  56  83 VRB3      30.06R HAZE
SOMERVILLE     CLOUDY    65  56  72 N6        30.03R
ALLAIRE*       CLOUDY    61  55  82 N8        30.03R
TOMS RIVER*    CLOUDY    61  61 100 N6        30.03R

$$
PAZ043-044-047-054-055-060>062-066>071-011500-
EASTERN PENNSYLVANIA

CITY           SKY/WX    TMP DP  RH WIND       PRES   REMARKS
PHILADELPHIA   PTSUNNY   67  57  70 E8        30.04R
NORTH PHILA    CLOUDY    67  56  67 NE8       30.06R
BLUE BELL      PTSUNNY   66  59  77 CALM      30.04R
DOYLESTOWN     CLOUDY    65  58  78 N9        30.05R
QUAKERTOWN*    CLOUDY    64  57  77 NE6       30.07R
POTTSTOWN      PTSUNNY   64  56  75 E7        30.07R
LANCASTER      CLOUDY    62  59  90 NE6       30.06R FOG
COATESVILLE    CLOUDY    61  57  88 NE5       30.07R
READING        PTSUNNY   65  57  75 N3        30.05R
ALLENTOWN      CLOUDY    64  56  75 NE5       30.06R
MOUNT POCONO   MOSUNNY   62  53  72 E9        30.08R
HAZLETON       CLOUDY    61  55  82 CALM      30.11R
WILKES BARRE   CLOUDY    63  55  75 VRB5      30.06R

$$
DEZALL-MDZ008-012-015-019-020-011500-
DELAWARE AND EASTERN MARYLAND

CITY           SKY/WX    TMP DP  RH WIND       PRES   REMARKS
WILMINGTON     CLOUDY    66  59  78 N6        30.05R
DOVER          CLOUDY    67  62  84 NE9       30.01R
GEORGETOWN     CLOUDY    66  61  84 NE10      30.02R
EASTON         CLOUDY    66  66 100 E8        30.07R
PATUXENT       PTSUNNY   65  60  84 NE7       30.01S
OCEAN CITY     CLOUDY   N/A N/A N/A NE12      29.99R
WALLOPS ISLAND CLOUDY    68  64  87 N9        30.00R
CAMBRIDGE      CLOUDY    64  61  88 NE3       30.02R
SALISBURY      CLOUDY    69  63  81 N8        30.01R

$$
PAZ001-021-NYZ056-072-MDZ011-DCZ001-011500-
OTHER NEARBY LOCATIONS

CITY           SKY/WX    TMP DP  RH WIND       PRES   REMARKS
HARRISBURG     CLOUDY    63  59  87 CALM      30.05R FOG
STATE COLLEGE  CLOUDY    57  57 100 CALM      30.07R FOG
WILLIAMSPORT   CLOUDY    63  59  87 CALM      30.06R
BINGHAMTON     CLOUDY    61  58  90 S3        30.08R FOG
NEW YORK CITY  CLOUDY    61  57  87 VRB5      30.07R FOG
BALTIMORE      PTSUNNY   65  61  87 NE7       30.03R
WASHINGTON DC  CLOUDY    68  61  78 E8        30.04R

$$


USA.gov is the U.S. government's official web portal to all federal, state and local government web resources and services.